Terminal Aerodrome Forecast
Issued by NWS

Current Version | Previous Version | Text Only | Print | Product List | Glossary Off
Versions: 1 2 3 4 5 6 7 8 9 10 11 12 13 14 15 16 17 18 19 20 21

000
FTUS41 KRLX 260928 AAA
TAFCKB
TAF AMD
KCKB 260928Z 2609/2706 14004KT P6SM BKN100
     FM261700 18009G15KT P6SM -SHRA BKN050
     FM262100 17007G16KT P6SM -SHRA BKN030
     FM270000 16007KT P6SM -SHRA BKN040=

USA.gov is the U.S. government's official web portal to all federal, state and local government web resources and services.